User: anonymous
Location: Unspecified
(0.0000°N, 0.0000°E)
Time: 22:08:11
(UTC+00:00)
Language:

Altair - Orbit

View from above orbital plane
View from above orbital plane
View from above satellite
View from above satellite

Ground track
Ground track

The orbit data is extracted from the following two-line orbital elements,

1 00050U 60009B   14111.77058724 -.00000117  00000-0 -28910-3 0   386
2 00050 047.2307 260.2930 0113975 104.4082 256.9387 12.20083128396136
Epoch (UTC): 21 April 2014 18:29:38
Eccentricity: 0.0113975
inclination: 47.2307°
perigee height: 1501 km
apogee height: 1683 km
right ascension of ascending node: 260.2930°
argument of perigee: 104.4082°
revolutions per day: 12.20083128
mean anomaly at epoch: 256.9387°
orbit number at epoch: 39613

The dashed part of the orbit path shows where the satellite is in the earth's shadow,  

DLR